Погода в Мальково

Россия / Тюменская область     57°07′28″N   65°51′58″E
темп.,
°C
ветер,
м/с
пор.,
м/с
влажн.,
%
обл.,
%
осадки,
мм/ч
давл.,
гПа
погр.,
м
17 сентября, пт
пт1723:00+5зюз36895 0.0 999213
02:00+5зюз3985100 0.0 998522
05:00+6зюз3681100 0.1 997954
08:00+5з3692100 0.4 996932
11:00+6з488598 0.8 996810
14:00+6зсз61192100 0.3 9981192
17:00+5сз61092100 0.6 10001082
20:00+5сз51087100 0.2 1002877
18 сентября, сб
сб1823:00+4зсз41184100 0.3 1003622
02:00+4з41076100 0.0 1004393
05:00+4з4975100 0.0 1005570
08:00+4з487542 0.0 1005405
11:00+8з465492 0.0 10051342
14:00+8зсз3451100 0.1 10051389
17:00+7зюз3568100 0.7 1005665
20:00+5з2779100 0.3 1005231
19 сентября, вс
вс1923:00+3з398866 0.3 1005310
02:00+1з4118960 0.0 1005384
05:00+1з4109490 0.0 1006521
08:00+2з51093100 0.1 1007783
11:00+3зсз51095100 0.2 1008716
14:00+3зсз51195100 0.3 1009633
17:00+6зсз6116498 0.3 10101220
20:00+6з51062100 0.0 10111086
20 сентября, пн
пн2023:00+5з51068100 0.1 1012680
02:00+3зсз511715 0.0 1013676
05:00+1зсз51180100 0.0 1015733
08:00+2зсз51176100 0.0 1016652
11:00+5сз5971100 0.0 1018966
14:00+5сз5772100 0.2 10201098
17:00+5сз4869100 0.3 10221139
20:00+4сз4873100 0.0 1024896
21 сентября, вт
вт2123:00+3ссз488597 0.1 1025753
02:00+3ссз3782100 0.0 1026666
05:000сз38915 0.0 1026334
08:00+1сз367963 0.0 1027323
11:00+6зсз3457100 0.0 1026772
14:00+9з4546100 0.0 10241160
17:00+9з374673 0.0 10221331
20:00+4зсз38675 0.0 1022178